Time,TemperatureF,DewpointF,PressureIn,WindDirection,WindDirectionDegrees,WindSpeedMPH,WindSpeedGustMPH,Humidity,HourlyPrecipIn,Conditions,Clouds,dailyrainin,SoftwareType,DateUTC
2013-03-13 00:03:00,47.4,25.4,30.05,SW,232,2.0,2.0,42,0.00,,,0.00,Wunderground v.1.13,2013-03-13 07:03:00,
2013-03-13 00:09:00,47.4,25.4,30.05,SW,232,2.0,2.0,42,0.00,,,0.00,Wunderground v.1.13,2013-03-13 07:09:00,
2013-03-13 00:14:00,47.3,25.3,30.05,SW,232,1.0,1.0,42,0.00,,,0.00,Wunderground v.1.13,2013-03-13 07:14:00,
2013-03-13 00:19:00,47.3,25.3,30.05,SW,232,1.0,1.0,42,0.00,,,0.00,Wunderground v.1.13,2013-03-13 07:19:00,
2013-03-13 00:25:00,47.3,25.3,30.05,SW,232,0.0,5.0,42,0.00,,,0.00,Wunderground v.1.13,2013-03-13 07:25:00,
2013-03-13 00:30:00,47.1,25.7,30.05,SW,232,0.0,5.0,43,0.00,,,0.00,Wunderground v.1.13,2013-03-13 07:30:00,
2013-03-13 00:36:00,47.1,25.7,30.05,SW,232,0.0,5.0,43,0.00,,,0.00,Wunderground v.1.13,2013-03-13 07:36:00,
2013-03-13 00:42:00,47.0,25.6,30.05,SW,232,0.0,5.0,43,0.00,,,0.00,Wunderground v.1.13,2013-03-13 07:42:00,
2013-03-13 00:47:00,46.8,25.5,30.04,SW,232,0.0,5.0,43,0.00,,,0.00,Wunderground v.1.13,2013-03-13 07:47:00,
2013-03-13 00:52:00,46.7,25.9,30.04,SW,232,0.0,5.0,44,0.00,,,0.00,Wunderground v.1.13,2013-03-13 07:52:00,
2013-03-13 00:57:00,46.5,26.3,30.04,SW,232,0.0,5.0,45,0.00,,,0.00,Wunderground v.1.13,2013-03-13 07:57:00,
2013-03-13 01:02:00,46.2,26.5,30.04,SW,232,0.0,5.0,46,0.00,,,0.00,Wunderground v.1.13,2013-03-13 08:02:00,
2013-03-13 01:08:00,46.0,26.4,30.04,SW,232,0.0,0.0,46,0.00,,,0.00,Wunderground v.1.13,2013-03-13 08:08:00,
2013-03-13 01:14:00,45.5,25.9,30.04,SW,232,0.0,0.0,46,0.00,,,0.00,Wunderground v.1.13,2013-03-13 08:14:00,
2013-03-13 01:19:00,45.4,25.8,30.04,SW,232,0.0,0.0,46,0.00,,,0.00,Wunderground v.1.13,2013-03-13 08:19:00,
2013-03-13 01:24:00,45.1,26.1,30.04,SW,232,0.0,0.0,47,0.00,,,0.00,Wunderground v.1.13,2013-03-13 08:24:00,
2013-03-13 01:30:00,44.8,26.8,30.04,SW,232,0.0,0.0,49,0.00,,,0.00,Wunderground v.1.13,2013-03-13 08:30:00,
2013-03-13 01:35:00,44.8,26.8,30.04,SW,232,0.0,0.0,49,0.00,,,0.00,Wunderground v.1.13,2013-03-13 08:35:00,
2013-03-13 01:42:00,44.8,26.3,30.04,SW,232,0.0,0.0,48,0.00,,,0.00,Wunderground v.1.13,2013-03-13 08:42:00,
2013-03-13 01:47:00,45.1,25.5,30.04,SW,232,0.0,0.0,46,0.00,,,0.00,Wunderground v.1.13,2013-03-13 08:47:00,
2013-03-13 01:53:00,45.4,25.8,30.04,SW,232,0.0,0.0,46,0.00,,,0.00,Wunderground v.1.13,2013-03-13 08:53:00,
2013-03-13 01:58:00,45.5,25.4,30.04,SW,232,0.0,0.0,45,0.00,,,0.00,Wunderground v.1.13,2013-03-13 08:58:00,
2013-03-13 02:04:00,45.7,26.1,30.04,SW,232,0.0,0.0,46,0.00,,,0.00,Wunderground v.1.13,2013-03-13 09:04:00,
2013-03-13 02:10:00,45.5,25.9,30.04,SW,232,0.0,0.0,46,0.00,,,0.00,Wunderground v.1.13,2013-03-13 09:10:00,
2013-03-13 02:15:00,45.2,25.6,30.04,SW,232,0.0,0.0,46,0.00,,,0.00,Wunderground v.1.13,2013-03-13 09:15:00,
2013-03-13 02:21:00,44.6,25.1,30.04,SW,232,0.0,0.0,46,0.00,,,0.00,Wunderground v.1.13,2013-03-13 09:21:00,
2013-03-13 02:26:00,43.9,25.5,30.04,SW,230,0.0,1.0,48,0.00,,,0.00,Wunderground v.1.13,2013-03-13 09:26:00,
2013-03-13 02:31:00,43.5,26.1,30.04,SW,227,0.0,0.0,50,0.00,,,0.00,Wunderground v.1.13,2013-03-13 09:31:00,
2013-03-13 02:36:00,42.9,26.0,30.04,SSW,213,0.0,1.0,51,0.00,,,0.00,Wunderground v.1.13,2013-03-13 09:36:00,
2013-03-13 02:42:00,42.3,25.9,30.04,SW,215,0.0,1.0,52,0.00,,,0.00,Wunderground v.1.13,2013-03-13 09:42:00,
2013-03-13 02:47:00,41.8,25.9,30.05,SSW,199,0.0,0.0,53,0.00,,,0.00,Wunderground v.1.13,2013-03-13 09:47:00,
2013-03-13 02:52:00,41.5,26.1,30.05,SSW,196,0.0,0.0,54,0.00,,,0.00,Wunderground v.1.13,2013-03-13 09:52:00,
2013-03-13 02:57:00,41.3,25.9,30.05,South,188,0.0,0.0,54,0.00,,,0.00,Wunderground v.1.13,2013-03-13 09:57:00,
2013-03-13 03:03:00,41.5,26.1,30.05,South,178,0.0,0.0,54,0.00,,,0.00,Wunderground v.1.13,2013-03-13 10:03:00,
2013-03-13 03:08:00,41.8,26.4,30.05,South,169,0.0,1.0,54,0.00,,,0.00,Wunderground v.1.13,2013-03-13 10:08:00,
2013-03-13 03:14:00,42.2,26.3,30.05,South,172,0.0,1.0,53,0.00,,,0.00,Wunderground v.1.13,2013-03-13 10:14:00,
2013-03-13 03:20:00,42.5,26.1,30.04,South,176,0.0,1.0,52,0.00,,,0.00,Wunderground v.1.13,2013-03-13 10:20:00,
2013-03-13 03:25:00,42.6,26.2,30.04,South,182,0.0,1.0,52,0.00,,,0.00,Wunderground v.1.13,2013-03-13 10:25:00,
2013-03-13 03:32:00,42.6,26.2,30.04,South,176,0.0,1.0,52,0.00,,,0.00,Wunderground v.1.13,2013-03-13 10:32:00,
2013-03-13 03:37:00,42.2,25.8,30.04,South,176,0.0,1.0,52,0.00,,,0.00,Wunderground v.1.13,2013-03-13 10:37:00,
2013-03-13 03:43:00,41.6,25.7,30.04,South,172,0.0,1.0,53,0.00,,,0.00,Wunderground v.1.13,2013-03-13 10:43:00,
2013-03-13 03:49:00,40.9,25.5,30.04,South,184,0.0,1.0,54,0.00,,,0.00,Wunderground v.1.13,2013-03-13 10:49:00,
2013-03-13 03:54:00,40.3,25.4,30.04,South,181,0.0,1.0,55,0.00,,,0.00,Wunderground v.1.13,2013-03-13 10:54:00,
2013-03-13 04:00:00,39.9,25.5,30.05,SSW,192,0.0,1.0,56,0.00,,,0.00,Wunderground v.1.13,2013-03-13 11:00:00,
2013-03-13 04:07:00,39.6,25.6,30.05,SSW,196,0.0,0.0,57,0.00,,,0.00,Wunderground v.1.13,2013-03-13 11:07:00,
2013-03-13 04:13:00,39.3,25.3,30.05,SSW,196,0.0,0.0,57,0.00,,,0.00,Wunderground v.1.13,2013-03-13 11:13:00,
2013-03-13 04:19:00,39.5,25.9,30.05,SSW,198,0.0,0.0,58,0.00,,,0.00,Wunderground v.1.13,2013-03-13 11:19:00,
2013-03-13 04:25:00,39.6,25.6,30.05,SSW,199,0.0,0.0,57,0.00,,,0.00,Wunderground v.1.13,2013-03-13 11:25:00,
2013-03-13 04:32:00,39.6,25.6,30.05,SSW,199,0.0,0.0,57,0.00,,,0.00,Wunderground v.1.13,2013-03-13 11:32:00,
2013-03-13 04:37:00,39.8,26.2,30.05,SSW,200,0.0,0.0,58,0.00,,,0.00,Wunderground v.1.13,2013-03-13 11:37:00,
2013-03-13 04:42:00,39.8,26.2,30.05,SSW,199,0.0,0.0,58,0.00,,,0.00,Wunderground v.1.13,2013-03-13 11:42:00,
2013-03-13 04:47:00,39.9,26.3,30.06,SSW,199,0.0,0.0,58,0.00,,,0.00,Wunderground v.1.13,2013-03-13 11:47:00,
2013-03-13 04:53:00,39.8,26.2,30.06,SSW,202,0.0,0.0,58,0.00,,,0.00,Wunderground v.1.13,2013-03-13 11:53:00,
2013-03-13 04:59:00,39.6,26.0,30.06,SSW,203,0.0,0.0,58,0.00,,,0.00,Wunderground v.1.13,2013-03-13 11:59:00,
2013-03-13 05:04:00,39.9,25.9,30.05,SSW,203,0.0,0.0,57,0.00,,,0.00,Wunderground v.1.13,2013-03-13 12:04:00,
2013-03-13 05:10:00,39.9,25.9,30.05,SSW,203,0.0,0.0,57,0.00,,,0.00,Wunderground v.1.13,2013-03-13 12:10:00,
2013-03-13 05:15:00,40.1,26.1,30.05,SSW,203,0.0,0.0,57,0.00,,,0.00,Wunderground v.1.13,2013-03-13 12:15:00,
2013-03-13 05:21:00,40.3,25.4,30.05,SSW,202,0.0,0.0,55,0.00,,,0.00,Wunderground v.1.13,2013-03-13 12:21:00,
2013-03-13 05:27:00,40.5,25.6,30.05,SSW,203,0.0,0.0,55,0.00,,,0.00,Wunderground v.1.13,2013-03-13 12:27:00,
2013-03-13 05:32:00,40.5,25.6,30.06,SSW,202,0.0,0.0,55,0.00,,,0.00,Wunderground v.1.13,2013-03-13 12:32:00,
2013-03-13 05:38:00,40.3,25.8,30.06,SSW,202,0.0,0.0,56,0.00,,,0.00,Wunderground v.1.13,2013-03-13 12:38:00,
2013-03-13 05:43:00,40.3,25.8,30.06,SSW,203,0.0,0.0,56,0.00,,,0.00,Wunderground v.1.13,2013-03-13 12:43:00,
2013-03-13 05:48:00,40.1,26.1,30.06,SSW,202,0.0,0.0,57,0.00,,,0.00,Wunderground v.1.13,2013-03-13 12:48:00,
2013-03-13 05:53:00,39.8,25.8,30.06,SSW,202,0.0,0.0,57,0.00,,,0.00,Wunderground v.1.13,2013-03-13 12:53:00,
2013-03-13 05:59:00,39.3,25.7,30.06,SSW,202,0.0,0.0,58,0.00,,,0.00,Wunderground v.1.13,2013-03-13 12:59:00,
2013-03-13 06:04:00,39.1,26.4,30.07,SSW,193,0.0,0.0,60,0.00,,,0.00,Wunderground v.1.13,2013-03-13 13:04:00,
2013-03-13 06:10:00,38.6,26.3,30.07,SSW,200,0.0,0.0,61,0.00,,,0.00,Wunderground v.1.13,2013-03-13 13:10:00,
2013-03-13 06:17:00,38.5,25.4,30.09,SSW,200,0.0,0.0,59,0.00,,,0.00,Wunderground v.1.13,2013-03-13 13:17:00,
2013-03-13 06:23:00,38.3,25.2,30.09,SSW,202,0.0,0.0,59,0.00,,,0.00,Wunderground v.1.13,2013-03-13 13:23:00,
2013-03-13 06:29:00,38.3,24.8,30.09,SSW,202,0.0,1.0,58,0.00,,,0.00,Wunderground v.1.13,2013-03-13 13:29:00,
2013-03-13 06:35:00,38.3,24.8,30.09,SSW,202,0.0,0.0,58,0.00,,,0.00,Wunderground v.1.13,2013-03-13 13:35:00,
2013-03-13 06:41:00,38.5,25.0,30.09,SSW,200,0.0,0.0,58,0.00,,,0.00,Wunderground v.1.13,2013-03-13 13:41:00,
2013-03-13 06:46:00,38.3,24.4,30.10,SSW,200,0.0,0.0,57,0.00,,,0.00,Wunderground v.1.13,2013-03-13 13:46:00,
2013-03-13 06:51:00,37.9,24.0,30.10,South,189,0.0,0.0,57,0.00,,,0.00,Wunderground v.1.13,2013-03-13 13:51:00,
2013-03-13 06:56:00,37.3,23.4,30.10,South,186,0.0,0.0,57,0.00,,,0.00,Wunderground v.1.13,2013-03-13 13:56:00,
2013-03-13 07:02:00,36.8,23.4,30.11,South,186,0.0,0.0,58,0.00,,,0.00,Wunderground v.1.13,2013-03-13 14:02:00,
2013-03-13 07:08:00,36.3,23.3,30.11,South,189,0.0,0.0,59,0.00,,,0.00,Wunderground v.1.13,2013-03-13 14:08:00,
2013-03-13 07:14:00,36.3,23.3,30.11,SSW,192,0.0,0.0,59,0.00,,,0.00,Wunderground v.1.13,2013-03-13 14:14:00,
2013-03-13 07:19:00,36.3,23.7,30.14,SSW,192,0.0,0.0,60,0.00,,,0.00,Wunderground v.1.13,2013-03-13 14:19:00,
2013-03-13 07:25:00,36.6,24.4,30.14,SSW,193,0.0,0.0,61,0.00,,,0.00,Wunderground v.1.13,2013-03-13 14:25:00,
2013-03-13 07:30:00,36.9,24.7,30.13,SSW,193,0.0,0.0,61,0.00,,,0.00,Wunderground v.1.13,2013-03-13 14:30:00,
2013-03-13 07:35:00,37.3,25.5,30.13,SSW,195,0.0,0.0,62,0.00,,,0.00,Wunderground v.1.13,2013-03-13 14:35:00,
2013-03-13 07:41:00,37.9,26.0,30.13,SSW,200,0.0,0.0,62,0.00,,,0.00,Wunderground v.1.13,2013-03-13 14:41:00,
2013-03-13 07:47:00,38.8,26.5,30.14,SSW,205,0.0,0.0,61,0.00,,,0.00,Wunderground v.1.13,2013-03-13 14:47:00,
2013-03-13 07:52:00,39.3,27.0,30.14,SSW,205,0.0,1.0,61,0.00,,,0.00,Wunderground v.1.13,2013-03-13 14:52:00,
2013-03-13 07:58:00,40.1,27.7,30.14,SW,230,0.0,1.0,61,0.00,,,0.00,Wunderground v.1.13,2013-03-13 14:58:00,
2013-03-13 08:03:00,40.8,28.0,30.14,SW,230,0.0,2.0,60,0.00,,,0.00,Wunderground v.1.13,2013-03-13 15:03:00,
2013-03-13 08:09:00,41.6,28.3,30.14,SW,229,1.0,1.0,59,0.00,,,0.00,Wunderground v.1.13,2013-03-13 15:09:00,
2013-03-13 08:15:00,42.5,28.8,30.14,SW,229,1.0,2.0,58,0.00,,,0.00,Wunderground v.1.13,2013-03-13 15:15:00,
2013-03-13 08:21:00,43.5,29.3,30.14,SW,229,0.0,2.0,57,0.00,,,0.00,Wunderground v.1.13,2013-03-13 15:21:00,
2013-03-13 08:27:00,44.6,29.0,30.14,SW,227,1.0,2.0,54,0.00,,,0.00,Wunderground v.1.13,2013-03-13 15:27:00,
2013-03-13 08:32:00,46.0,28.9,30.15,SW,227,1.0,3.0,51,0.00,,,0.00,Wunderground v.1.13,2013-03-13 15:32:00,
2013-03-13 08:37:00,47.3,28.6,30.15,SW,227,1.0,3.0,48,0.00,,,0.00,Wunderground v.1.13,2013-03-13 15:37:00,
2013-03-13 08:42:00,48.8,28.9,30.15,SW,229,1.0,2.0,46,0.00,,,0.00,Wunderground v.1.13,2013-03-13 15:42:00,
2013-03-13 08:48:00,50.4,28.7,30.14,SW,229,0.0,2.0,43,0.00,,,0.00,Wunderground v.1.13,2013-03-13 15:48:00,
2013-03-13 08:53:00,52.5,27.6,30.14,SW,227,0.0,2.0,38,0.00,,,0.00,Wunderground v.1.13,2013-03-13 15:53:00,
2013-03-13 08:58:00,54.4,28.0,30.14,SW,229,0.0,2.0,36,0.00,,,0.00,Wunderground v.1.13,2013-03-13 15:58:00,
2013-03-13 09:04:00,56.3,27.5,30.13,SW,229,0.0,1.0,33,0.00,,,0.00,Wunderground v.1.13,2013-03-13 16:04:00,
2013-03-13 09:10:00,57.2,26.8,30.13,SW,227,0.0,1.0,31,0.00,,,0.00,Wunderground v.1.13,2013-03-13 16:10:00,
2013-03-13 09:16:00,58.1,26.8,30.14,SW,227,0.0,1.0,30,0.00,,,0.00,Wunderground v.1.13,2013-03-13 16:16:00,
2013-03-13 09:22:00,59.2,25.2,30.14,SW,226,0.0,1.0,27,0.00,,,0.00,Wunderground v.1.13,2013-03-13 16:22:00,
2013-03-13 09:27:00,60.1,26.9,30.14,SW,223,0.0,1.0,28,0.00,,,0.00,Wunderground v.1.13,2013-03-13 16:27:00,
2013-03-13 09:32:00,60.9,27.5,30.14,SW,226,0.0,1.0,28,0.00,,,0.00,Wunderground v.1.13,2013-03-13 16:32:00,
2013-03-13 09:37:00,61.6,27.3,30.14,SW,226,0.0,1.0,27,0.00,,,0.00,Wunderground v.1.13,2013-03-13 16:37:00,
2013-03-13 09:43:00,62.6,28.1,30.14,SW,226,0.0,1.0,27,0.00,,,0.00,Wunderground v.1.13,2013-03-13 16:43:00,
2013-03-13 09:49:00,63.5,28.0,30.13,SW,226,0.0,1.0,26,0.00,,,0.00,Wunderground v.1.13,2013-03-13 16:49:00,
2013-03-13 09:55:00,64.2,27.6,30.13,SW,226,0.0,1.0,25,0.00,,,0.00,Wunderground v.1.13,2013-03-13 16:55:00,
2013-03-13 10:01:00,64.3,26.7,30.13,SW,226,0.0,1.0,24,0.00,,,0.00,Wunderground v.1.13,2013-03-13 17:01:00,
2013-03-13 10:07:00,64.3,27.7,30.13,SW,226,0.0,1.0,25,0.00,,,0.00,Wunderground v.1.13,2013-03-13 17:07:00,
2013-03-13 10:13:00,64.8,27.1,30.13,SW,226,0.0,1.0,24,0.00,,,0.00,Wunderground v.1.13,2013-03-13 17:13:00,
2013-03-13 10:19:00,65.8,26.9,30.13,SW,224,0.0,1.0,23,0.00,,,0.00,Wunderground v.1.13,2013-03-13 17:19:00,
2013-03-13 10:25:00,66.4,26.4,30.13,SW,222,0.0,1.0,22,0.00,,,0.00,Wunderground v.1.13,2013-03-13 17:25:00,
2013-03-13 10:31:00,67.3,24.8,30.12,SW,222,0.0,1.0,20,0.00,,,0.00,Wunderground v.1.13,2013-03-13 17:31:00,
2013-03-13 10:36:00,68.3,25.6,30.12,SW,220,0.0,1.0,20,0.00,,,0.00,Wunderground v.1.13,2013-03-13 17:36:00,
2013-03-13 10:43:00,69.1,26.3,30.12,SW,217,0.0,2.0,20,0.00,,,0.00,Wunderground v.1.13,2013-03-13 17:43:00,
2013-03-13 10:49:00,69.8,24.3,30.12,SW,217,0.0,1.0,18,0.00,,,0.00,Wunderground v.1.13,2013-03-13 17:49:00,
2013-03-13 10:55:00,70.6,25.0,30.12,SE,145,0.0,2.0,18,0.00,,,0.00,Wunderground v.1.13,2013-03-13 17:55:00,
2013-03-13 11:00:00,71.1,25.4,30.11,SE,145,0.0,1.0,18,0.00,,,0.00,Wunderground v.1.13,2013-03-13 18:00:00,
2013-03-13 11:05:00,71.6,24.4,30.11,SE,145,0.0,3.0,17,0.00,,,0.00,Wunderground v.1.13,2013-03-13 18:05:00,
2013-03-13 11:10:00,71.8,24.6,30.11,SSE,147,0.0,3.0,17,0.00,,,0.00,Wunderground v.1.13,2013-03-13 18:10:00,
2013-03-13 11:16:00,72.5,26.5,30.12,SE,144,0.0,3.0,18,0.00,,,0.00,Wunderground v.1.13,2013-03-13 18:16:00,
2013-03-13 11:22:00,72.8,25.4,30.12,SE,138,1.0,3.0,17,0.00,,,0.00,Wunderground v.1.13,2013-03-13 18:22:00,
2013-03-13 11:27:00,73.2,25.7,30.12,SE,138,0.0,3.0,17,0.00,,,0.00,Wunderground v.1.13,2013-03-13 18:27:00,
2013-03-13 11:32:00,74.0,24.9,30.12,East,85,0.0,3.0,16,0.00,,,0.00,Wunderground v.1.13,2013-03-13 18:32:00,
2013-03-13 11:37:00,74.6,26.9,30.12,SE,144,1.0,3.0,17,0.00,,,0.00,Wunderground v.1.13,2013-03-13 18:37:00,
2013-03-13 11:42:00,74.7,25.5,30.12,ENE,64,1.0,3.0,16,0.00,,,0.00,Wunderground v.1.13,2013-03-13 18:42:00,
2013-03-13 11:47:00,75.3,26.0,30.11,ENE,59,1.0,3.0,16,0.00,,,0.00,Wunderground v.1.13,2013-03-13 18:47:00,
2013-03-13 11:53:00,75.6,24.7,30.11,SE,124,0.0,3.0,15,0.00,,,0.00,Wunderground v.1.13,2013-03-13 18:53:00,
2013-03-13 11:59:00,76.0,25.0,30.11,ESE,104,0.0,3.0,15,0.00,,,0.00,Wunderground v.1.13,2013-03-13 18:59:00,
2013-03-13 12:04:00,76.7,25.5,30.10,ESE,116,0.0,3.0,15,0.00,,,0.00,Wunderground v.1.13,2013-03-13 19:04:00,
2013-03-13 12:10:00,76.8,24.0,30.10,NNE,16,1.0,5.0,14,0.00,,,0.00,Wunderground v.1.13,2013-03-13 19:10:00,
2013-03-13 12:15:00,76.7,25.5,30.10,North,10,2.0,3.0,15,0.00,,,0.00,Wunderground v.1.13,2013-03-13 19:15:00,
2013-03-13 12:21:00,77.0,24.1,30.10,North,0,1.0,3.0,14,0.00,,,0.00,Wunderground v.1.13,2013-03-13 19:21:00,
2013-03-13 12:26:00,77.6,24.6,30.10,North,3,1.0,3.0,14,0.00,,,0.00,Wunderground v.1.13,2013-03-13 19:26:00,
2013-03-13 12:31:00,78.5,25.3,30.09,East,89,1.0,3.0,14,0.00,,,0.00,Wunderground v.1.13,2013-03-13 19:31:00,
2013-03-13 12:37:00,79.2,25.9,30.09,NNE,13,1.0,3.0,14,0.00,,,0.00,Wunderground v.1.13,2013-03-13 19:37:00,
2013-03-13 12:42:00,79.6,24.4,30.09,ESE,112,1.0,3.0,13,0.00,,,0.00,Wunderground v.1.13,2013-03-13 19:42:00,
2013-03-13 12:48:00,79.2,24.1,30.07,NNE,25,1.0,3.0,13,0.00,,,0.00,Wunderground v.1.13,2013-03-13 19:48:00,
2013-03-13 12:53:00,79.4,24.2,30.07,NNE,24,1.0,3.0,13,0.00,,,0.00,Wunderground v.1.13,2013-03-13 19:53:00,
2013-03-13 12:59:00,80.1,24.8,30.07,ENE,59,1.0,3.0,13,0.00,,,0.00,Wunderground v.1.13,2013-03-13 19:59:00,
2013-03-13 13:04:00,80.7,25.3,30.07,East,90,1.0,6.0,13,0.00,,,0.00,Wunderground v.1.13,2013-03-13 20:04:00,
2013-03-13 13:10:00,80.9,23.5,30.07,NNE,13,2.0,6.0,12,0.00,,,0.00,Wunderground v.1.13,2013-03-13 20:10:00,
2013-03-13 13:16:00,81.2,23.7,30.06,ESE,107,2.0,6.0,12,0.00,,,0.00,Wunderground v.1.13,2013-03-13 20:16:00,
2013-03-13 13:22:00,81.4,23.9,30.06,East,99,1.0,6.0,12,0.00,,,0.00,Wunderground v.1.13,2013-03-13 20:22:00,
2013-03-13 13:27:00,81.1,21.6,30.06,North,8,2.0,6.0,11,0.00,,,0.00,Wunderground v.1.13,2013-03-13 20:27:00,
2013-03-13 13:33:00,81.2,25.7,30.05,NNW,340,2.0,6.0,13,0.00,,,0.00,Wunderground v.1.13,2013-03-13 20:33:00,
2013-03-13 13:39:00,81.4,21.8,30.05,NNE,27,2.0,7.0,11,0.00,,,0.00,Wunderground v.1.13,2013-03-13 20:39:00,
2013-03-13 13:45:00,81.4,21.8,30.04,NNE,17,4.0,5.0,11,0.00,,,0.00,Wunderground v.1.13,2013-03-13 20:45:00,
2013-03-13 13:50:00,81.2,21.7,30.04,NNW,347,4.0,6.0,11,0.00,,,0.00,Wunderground v.1.13,2013-03-13 20:50:00,
2013-03-13 13:57:00,81.8,22.1,30.04,East,90,3.0,6.0,11,0.00,,,0.00,Wunderground v.1.13,2013-03-13 20:57:00,
2013-03-13 14:03:00,82.2,22.4,30.03,NNE,13,2.0,6.0,11,0.00,,,0.00,Wunderground v.1.13,2013-03-13 21:03:00,
2013-03-13 14:09:00,81.8,19.9,30.03,East,88,3.0,3.0,10,0.00,,,0.00,Wunderground v.1.13,2013-03-13 21:09:00,
2013-03-13 14:14:00,81.8,22.1,30.03,North,7,3.0,8.0,11,0.00,,,0.00,Wunderground v.1.13,2013-03-13 21:14:00,
2013-03-13 14:20:00,82.0,22.3,30.04,ENE,76,2.0,8.0,11,0.00,,,0.00,Wunderground v.1.13,2013-03-13 21:20:00,
2013-03-13 14:26:00,82.4,22.6,30.04,East,86,2.0,8.0,11,0.00,,,0.00,Wunderground v.1.13,2013-03-13 21:26:00,
2013-03-13 14:32:00,82.8,20.6,30.02,ESE,107,3.0,8.0,10,0.00,,,0.00,Wunderground v.1.13,2013-03-13 21:32:00,
2013-03-13 14:37:00,83.0,23.0,30.02,North,7,1.0,8.0,11,0.00,,,0.00,Wunderground v.1.13,2013-03-13 21:37:00,
2013-03-13 14:42:00,83.2,23.2,30.02,ESE,107,2.0,8.0,11,0.00,,,0.00,Wunderground v.1.13,2013-03-13 21:42:00,
2013-03-13 14:47:00,83.4,21.1,30.02,ESE,116,3.0,8.0,10,0.00,,,0.00,Wunderground v.1.13,2013-03-13 21:47:00,
2013-03-13 14:53:00,83.4,21.1,30.02,North,3,3.0,8.0,10,0.00,,,0.00,Wunderground v.1.13,2013-03-13 21:53:00,
2013-03-13 14:58:00,83.2,20.9,30.02,North,6,4.0,8.0,10,0.00,,,0.00,Wunderground v.1.13,2013-03-13 21:58:00,
2013-03-13 15:04:00,83.0,23.0,30.01,NE,35,3.0,9.0,11,0.00,,,0.00,Wunderground v.1.13,2013-03-13 22:04:00,
2013-03-13 15:10:00,83.2,20.9,30.01,NNE,13,3.0,9.0,10,0.00,,,0.00,Wunderground v.1.13,2013-03-13 22:10:00,
2013-03-13 15:15:00,83.6,21.2,30.01,NNE,13,2.0,9.0,10,0.00,,,0.00,Wunderground v.1.13,2013-03-13 22:15:00,
2013-03-13 15:20:00,83.8,21.4,30.01,NNW,340,2.0,9.0,10,0.00,,,0.00,Wunderground v.1.13,2013-03-13 22:20:00,
2013-03-13 15:26:00,83.8,21.4,30.01,ENE,75,2.0,9.0,10,0.00,,,0.00,Wunderground v.1.13,2013-03-13 22:26:00,
2013-03-13 15:31:00,84.1,21.6,30.00,NE,38,3.0,9.0,10,0.00,,,0.00,Wunderground v.1.13,2013-03-13 22:31:00,
2013-03-13 15:37:00,84.1,21.6,30.00,ESE,106,2.0,9.0,10,0.00,,,0.00,Wunderground v.1.13,2013-03-13 22:37:00,
2013-03-13 15:43:00,84.3,21.8,30.00,ESE,110,1.0,9.0,10,0.00,,,0.00,Wunderground v.1.13,2013-03-13 22:43:00,
2013-03-13 15:49:00,84.1,21.6,30.00,NE,54,2.0,9.0,10,0.00,,,0.00,Wunderground v.1.13,2013-03-13 22:49:00,
2013-03-13 15:54:00,84.1,19.1,30.00,NNE,21,2.0,9.0,9,0.00,,,0.00,Wunderground v.1.13,2013-03-13 22:54:00,
2013-03-13 15:59:00,84.1,21.6,30.00,East,86,1.0,9.0,10,0.00,,,0.00,Wunderground v.1.13,2013-03-13 22:59:00,
2013-03-13 16:05:00,84.5,21.9,29.99,East,93,1.0,6.0,10,0.00,,,0.00,Wunderground v.1.13,2013-03-13 23:05:00,
2013-03-13 16:11:00,84.5,21.9,29.99,NE,47,2.0,6.0,10,0.00,,,0.00,Wunderground v.1.13,2013-03-13 23:11:00,
2013-03-13 16:16:00,84.5,21.9,29.99,ESE,103,2.0,4.0,10,0.00,,,0.00,Wunderground v.1.13,2013-03-13 23:16:00,
2013-03-13 16:22:00,84.3,21.8,29.99,SE,140,2.0,6.0,10,0.00,,,0.00,Wunderground v.1.13,2013-03-13 23:22:00,
2013-03-13 16:28:00,84.3,19.3,29.99,SE,130,1.0,6.0,9,0.00,,,0.00,Wunderground v.1.13,2013-03-13 23:28:00,
2013-03-13 16:33:00,84.5,19.4,29.99,ENE,65,1.0,6.0,9,0.00,,,0.00,Wunderground v.1.13,2013-03-13 23:33:00,
2013-03-13 16:39:00,84.5,19.4,29.99,NE,40,1.0,6.0,9,0.00,,,0.00,Wunderground v.1.13,2013-03-13 23:39:00,
2013-03-13 16:45:00,84.5,19.4,29.99,ENE,61,1.0,1.0,9,0.00,,,0.00,Wunderground v.1.13,2013-03-13 23:45:00,
2013-03-13 16:51:00,84.7,19.6,29.99,NNE,28,2.0,6.0,9,0.00,,,0.00,Wunderground v.1.13,2013-03-13 23:51:00,
2013-03-13 16:57:00,84.5,19.4,29.99,North,7,2.0,6.0,9,0.00,,,0.00,Wunderground v.1.13,2013-03-13 23:57:00,
2013-03-13 17:03:00,84.3,19.3,29.99,NNE,27,2.0,6.0,9,0.00,,,0.00,Wunderground v.1.13,2013-03-14 00:03:00,
2013-03-13 17:08:00,84.5,19.4,29.99,NNE,25,1.0,8.0,9,0.00,,,0.00,Wunderground v.1.13,2013-03-14 00:08:00,
2013-03-13 17:14:00,85.1,19.9,29.99,SE,128,1.0,8.0,9,0.00,,,0.00,Wunderground v.1.13,2013-03-14 00:14:00,
2013-03-13 17:19:00,85.1,19.9,29.98,East,97,1.0,8.0,9,0.00,,,0.00,Wunderground v.1.13,2013-03-14 00:19:00,
2013-03-13 17:25:00,84.7,19.6,29.98,North,4,1.0,8.0,9,0.00,,,0.00,Wunderground v.1.13,2013-03-14 00:25:00,
2013-03-13 17:30:00,84.5,19.4,29.98,North,6,2.0,2.0,9,0.00,,,0.00,Wunderground v.1.13,2013-03-14 00:30:00,
2013-03-13 17:37:00,84.5,19.4,29.98,North,7,1.0,8.0,9,0.00,,,0.00,Wunderground v.1.13,2013-03-14 00:37:00,
2013-03-13 17:43:00,84.5,19.4,29.98,North,354,1.0,8.0,9,0.00,,,0.00,Wunderground v.1.13,2013-03-14 00:43:00,
2013-03-13 17:49:00,84.7,19.6,29.98,ESE,112,1.0,8.0,9,0.00,,,0.00,Wunderground v.1.13,2013-03-14 00:49:00,
2013-03-13 17:55:00,84.5,19.4,29.98,North,7,1.0,1.0,9,0.00,,,0.00,Wunderground v.1.13,2013-03-14 00:55:00,
2013-03-13 18:01:00,84.3,19.3,29.98,NNE,18,1.0,8.0,9,0.00,,,0.00,Wunderground v.1.13,2013-03-14 01:01:00,
2013-03-13 18:07:00,83.8,21.4,29.98,NNE,30,2.0,6.0,10,0.00,,,0.00,Wunderground v.1.13,2013-03-14 01:07:00,
2013-03-13 18:12:00,83.4,21.1,29.98,North,6,2.0,6.0,10,0.00,,,0.00,Wunderground v.1.13,2013-03-14 01:12:00,
2013-03-13 18:18:00,83.2,20.9,29.99,North,6,1.0,6.0,10,0.00,,,0.00,Wunderground v.1.13,2013-03-14 01:18:00,
2013-03-13 18:24:00,83.0,20.8,29.99,North,6,1.0,6.0,10,0.00,,,0.00,Wunderground v.1.13,2013-03-14 01:24:00,
2013-03-13 18:30:00,82.6,20.5,29.99,North,6,1.0,6.0,10,0.00,,,0.00,Wunderground v.1.13,2013-03-14 01:30:00,
2013-03-13 18:36:00,82.4,20.3,29.99,North,6,1.0,6.0,10,0.00,,,0.00,Wunderground v.1.13,2013-03-14 01:36:00,
2013-03-13 18:42:00,81.8,22.1,29.99,North,6,0.0,6.0,11,0.00,,,0.00,Wunderground v.1.13,2013-03-14 01:42:00,
2013-03-13 18:47:00,81.1,21.6,30.00,North,6,0.0,6.0,11,0.00,,,0.00,Wunderground v.1.13,2013-03-14 01:47:00,
2013-03-13 18:53:00,80.3,21.0,30.00,North,6,0.0,6.0,11,0.00,,,0.00,Wunderground v.1.13,2013-03-14 01:53:00,
2013-03-13 18:59:00,79.4,22.3,30.00,North,3,0.0,6.0,12,0.00,,,0.00,Wunderground v.1.13,2013-03-14 01:59:00,
2013-03-13 19:04:00,78.8,21.9,30.00,North,4,1.0,6.0,12,0.00,,,0.00,Wunderground v.1.13,2013-03-14 02:04:00,
2013-03-13 19:09:00,78.1,23.2,30.00,North,6,1.0,2.0,13,0.00,,,0.00,Wunderground v.1.13,2013-03-14 02:09:00,
2013-03-13 19:15:00,77.4,22.7,30.00,North,4,0.0,2.0,13,0.00,,,0.00,Wunderground v.1.13,2013-03-14 02:15:00,
2013-03-13 19:21:00,76.7,22.1,30.00,North,6,0.0,2.0,13,0.00,,,0.00,Wunderground v.1.13,2013-03-14 02:21:00,
2013-03-13 19:27:00,75.8,23.2,30.00,North,6,0.0,2.0,14,0.00,,,0.00,Wunderground v.1.13,2013-03-14 02:27:00,
2013-03-13 19:33:00,75.1,22.6,30.00,North,6,0.0,2.0,14,0.00,,,0.00,Wunderground v.1.13,2013-03-14 02:33:00,
2013-03-13 19:39:00,74.2,23.5,30.00,North,6,0.0,2.0,15,0.00,,,0.00,Wunderground v.1.13,2013-03-14 02:39:00,
2013-03-13 19:45:00,73.2,22.7,30.02,North,6,0.0,2.0,15,0.00,,,0.00,Wunderground v.1.13,2013-03-14 02:45:00,
2013-03-13 19:52:00,72.1,23.4,30.02,North,6,0.0,2.0,16,0.00,,,0.00,Wunderground v.1.13,2013-03-14 02:52:00,
2013-03-13 19:58:00,71.5,24.4,30.02,North,6,0.0,2.0,17,0.00,,,0.00,Wunderground v.1.13,2013-03-14 02:58:00,
2013-03-13 20:04:00,70.8,23.8,30.02,North,6,0.0,2.0,17,0.00,,,0.00,Wunderground v.1.13,2013-03-14 03:04:00,
2013-03-13 20:10:00,70.1,24.6,30.02,North,6,0.0,1.0,18,0.00,,,0.00,Wunderground v.1.13,2013-03-14 03:10:00,
2013-03-13 20:15:00,69.6,24.2,29.99,North,6,0.0,1.0,18,0.00,,,0.00,Wunderground v.1.13,2013-03-14 03:15:00,
2013-03-13 20:21:00,68.9,24.9,29.99,North,6,0.0,1.0,19,0.00,,,0.00,Wunderground v.1.13,2013-03-14 03:21:00,
2013-03-13 20:27:00,68.3,24.4,29.99,North,6,0.0,1.0,19,0.00,,,0.00,Wunderground v.1.13,2013-03-14 03:27:00,
2013-03-13 20:32:00,67.6,23.8,30.00,North,6,0.0,1.0,19,0.00,,,0.00,Wunderground v.1.13,2013-03-14 03:32:00,
2013-03-13 20:38:00,66.9,24.5,30.00,North,6,0.0,1.0,20,0.00,,,0.00,Wunderground v.1.13,2013-03-14 03:38:00,
2013-03-13 20:43:00,66.4,24.1,30.00,North,6,0.0,1.0,20,0.00,,,0.00,Wunderground v.1.13,2013-03-14 03:43:00,
2013-03-13 20:49:00,66.0,23.7,30.01,NW,322,0.0,4.0,20,0.00,,,0.00,Wunderground v.1.13,2013-03-14 03:49:00,
2013-03-13 20:55:00,66.1,22.6,30.01,NNW,329,1.0,2.0,19,0.00,,,0.00,Wunderground v.1.13,2013-03-14 03:55:00,
2013-03-13 21:00:00,66.3,22.8,30.01,NW,315,2.0,2.0,19,0.00,,,0.00,Wunderground v.1.13,2013-03-14 04:00:00,
2013-03-13 21:03:00,66.4,22.8,30.01,NW,315,1.0,2.0,19,0.00,,,0.00,Wunderground v.1.13,2013-03-14 04:03:00,
2013-03-13 21:05:00,66.4,22.8,30.01,NW,316,1.0,5.0,19,0.00,,,0.00,Wunderground v.1.13,2013-03-14 04:05:00,
2013-03-13 21:12:00,66.6,23.0,30.01,NW,313,1.0,5.0,19,0.00,,,0.00,Wunderground v.1.13,2013-03-14 04:12:00,
2013-03-13 21:17:00,66.8,23.2,29.99,NNW,329,2.0,5.0,19,0.00,,,0.00,Wunderground v.1.13,2013-03-14 04:17:00,
2013-03-13 21:23:00,66.8,23.2,29.99,NNW,337,2.0,5.0,19,0.00,,,0.00,Wunderground v.1.13,2013-03-14 04:23:00,
2013-03-13 21:29:00,66.4,22.8,29.99,NNW,337,2.0,5.0,19,0.00,,,0.00,Wunderground v.1.13,2013-03-14 04:29:00,
2013-03-13 21:35:00,66.1,23.8,30.00,NW,325,2.0,5.0,20,0.00,,,0.00,Wunderground v.1.13,2013-03-14 04:35:00,
2013-03-13 21:42:00,65.6,23.4,30.00,North,359,2.0,5.0,20,0.00,,,0.00,Wunderground v.1.13,2013-03-14 04:42:00,
2013-03-13 21:47:00,65.3,23.2,30.00,North,354,1.0,5.0,20,0.00,,,0.00,Wunderground v.1.13,2013-03-14 04:47:00,
2013-03-13 21:48:00,65.2,23.1,30.00,North,354,1.0,5.0,20,0.00,,,0.00,Wunderground v.1.13,2013-03-14 04:48:00,
2013-03-13 21:53:00,64.5,25.8,30.00,SE,127,1.0,5.0,23,0.00,,,0.00,Wunderground v.1.13,2013-03-14 04:53:00,
2013-03-13 21:58:00,62.4,27.9,30.00,SE,131,1.0,5.0,27,0.00,,,0.00,Wunderground v.1.13,2013-03-14 04:58:00,
2013-03-13 22:04:00,60.7,27.4,30.02,SE,131,0.0,5.0,28,0.00,,,0.00,Wunderground v.1.13,2013-03-14 05:04:00,
2013-03-13 22:10:00,59.3,27.0,30.02,SE,131,0.0,3.0,29,0.00,,,0.00,Wunderground v.1.13,2013-03-14 05:10:00,
2013-03-13 22:16:00,58.4,27.1,30.01,SE,131,0.0,3.0,30,0.00,,,0.00,Wunderground v.1.13,2013-03-14 05:16:00,
2013-03-13 22:22:00,57.6,26.4,30.01,SW,226,1.0,3.0,30,0.00,,,0.00,Wunderground v.1.13,2013-03-14 05:22:00,
2013-03-13 22:28:00,56.7,26.4,30.01,WSW,258,2.0,3.0,31,0.00,,,0.00,Wunderground v.1.13,2013-03-14 05:28:00,
2013-03-13 22:33:00,56.0,26.5,30.02,West,272,2.0,3.0,32,0.00,,,0.00,Wunderground v.1.13,2013-03-14 05:33:00,
2013-03-13 22:38:00,55.4,26.7,30.02,West,268,3.0,6.0,33,0.00,,,0.00,Wunderground v.1.13,2013-03-14 05:38:00,
2013-03-13 22:44:00,55.1,27.2,30.02,West,272,4.0,4.0,34,0.00,,,0.00,Wunderground v.1.13,2013-03-14 05:44:00,
2013-03-13 22:50:00,55.1,27.2,30.02,West,268,3.0,3.0,34,0.00,,,0.00,Wunderground v.1.13,2013-03-14 05:50:00,
2013-03-13 22:55:00,54.8,26.9,30.02,West,270,2.0,3.0,34,0.00,,,0.00,Wunderground v.1.13,2013-03-14 05:55:00,
2013-03-13 23:02:00,54.8,26.2,30.02,West,270,2.0,3.0,33,0.00,,,0.00,Wunderground v.1.13,2013-03-14 06:02:00,
2013-03-13 23:08:00,54.8,25.5,30.02,West,270,1.0,6.0,32,0.00,,,0.00,Wunderground v.1.13,2013-03-14 06:08:00,
2013-03-13 23:13:00,54.8,25.5,30.02,West,270,0.0,6.0,32,0.00,,,0.00,Wunderground v.1.13,2013-03-14 06:13:00,
2013-03-13 23:19:00,54.7,25.4,30.01,West,270,0.0,6.0,32,0.00,,,0.00,Wunderground v.1.13,2013-03-14 06:19:00,
2013-03-13 23:25:00,54.7,25.4,30.01,West,268,0.0,6.0,32,0.00,,,0.00,Wunderground v.1.13,2013-03-14 06:25:00,
2013-03-13 23:31:00,54.1,26.3,30.01,West,271,1.0,6.0,34,0.00,,,0.00,Wunderground v.1.13,2013-03-14 06:31:00,
2013-03-13 23:36:00,53.2,26.2,30.01,West,271,2.0,3.0,35,0.00,,,0.00,Wunderground v.1.13,2013-03-14 06:36:00,
2013-03-13 23:42:00,53.2,26.2,30.01,West,271,2.0,6.0,35,0.00,,,0.00,Wunderground v.1.13,2013-03-14 06:42:00,
2013-03-13 23:48:00,53.5,26.5,30.01,West,271,1.0,6.0,35,0.00,,,0.00,Wunderground v.1.13,2013-03-14 06:48:00,
2013-03-13 23:54:00,53.5,27.2,30.01,West,271,1.0,6.0,36,0.00,,,0.00,Wunderground v.1.13,2013-03-14 06:54:00,